Norman, OK

11:21 AM CDT on August 31, 2016 (GMT -0500)
Univ. Of Oklahoma Westheimer

Weather History for KOUN - August, 2014

Change the Weather History Date:

Wednesday, August 20, 2014

  Actual Average Record
Temperature  
Mean Temperature 83 °F -  
Max Temperature 93 °F 94 °F 104 °F (1948)
Min Temperature 73 °F 69 °F 35 °F (2005)
Cooling Degree Days 18    
Growing Degree Days 33 (Base 50)    
Moisture  
Dew Point 67 °F    
Average Humidity 62    
Maximum Humidity 88    
Minimum Humidity 38    
Precipitation  
Precipitation 0.03 in - - ()
Sea Level Pressure  
Sea Level Pressure 29.91 in    
Wind  
Wind Speed 12 mph (SSE)    
Max Wind Speed 21 mph    
Max Gust Speed 29 mph    
Visibility 10 miles    
Events      
Averages and records for this station are not official NWS values.
T = Trace of Precipitation, MM = Missing Value Source: NWS Daily Summary

Daily Weather History Graph

Daily Weather History Graph

Search for Another Location

Airport or City:

Trip Planner

Search our weather history database for the weather conditions in past years. The results will help you decide how hot, cold, wet, or windy it might be!

Date:

Astronomy

Aug. 20, 2014 Rise Set
Actual Time 6:53 AM CDT 8:12 PM CDT
Civil Twilight 6:26 AM CDT 8:39 PM CDT
Nautical Twilight 5:55 AM CDT 9:10 PM CDT
Astronomical Twilight 5:21 AM CDT 9:43 PM CDT
Moon 2:38 AM CDT (8/20) 4:54 PM CDT (8/20)
Length of Visible Light 14h 12m
Length of Day
13h 19m
Waning Crescent, 20% of the Moon is Illuminated
Aug 20
Waning Crescent
Aug 25
New
Sep 2
First Quarter
Sep 8
Full
Sep 15
Last Quarter

Hourly Weather History & Observations

Time (CDT) Temp. Heat Index Dew Point Humidity Pressure Visibility Wind Dir Wind Speed Gust Speed Precip Events Conditions
12:35 AM 77.0 °F - 68.0 °F 74% 29.90 in 10.0 mi South 8.1 mph - N/A   Clear
12:55 AM 77.0 °F - 68.0 °F 74% 29.89 in 10.0 mi South 9.2 mph - N/A   Clear
1:15 AM 77.0 °F - 68.0 °F 74% 29.89 in 10.0 mi South 8.1 mph - N/A   Clear
1:35 AM 77.0 °F - 68.0 °F 74% 29.88 in 10.0 mi South 9.2 mph - N/A   Clear
1:55 AM 77.0 °F - 68.0 °F 74% 29.89 in 10.0 mi SSE 10.4 mph - N/A   Clear
2:15 AM 77.0 °F - 68.0 °F 74% 29.89 in 10.0 mi South 10.4 mph - N/A   Clear
2:35 AM 75.2 °F - 68.0 °F 78% 29.88 in 10.0 mi SSE 10.4 mph - N/A   Clear
2:55 AM 75.2 °F - 68.0 °F 78% 29.88 in 10.0 mi SSE 9.2 mph - N/A   Clear
3:15 AM 73.4 °F - 68.0 °F 83% 29.88 in 10.0 mi South 9.2 mph - N/A   Clear
3:35 AM 73.4 °F - 68.0 °F 83% 29.89 in 10.0 mi South 9.2 mph - N/A   Scattered Clouds
3:55 AM 73.4 °F - 68.0 °F 83% 29.89 in 10.0 mi SSE 9.2 mph - N/A   Scattered Clouds
4:15 AM 73.4 °F - 68.0 °F 83% 29.89 in 10.0 mi South 8.1 mph - N/A   Scattered Clouds
4:35 AM 73.4 °F - 68.0 °F 83% 29.89 in 10.0 mi South 8.1 mph - N/A   Scattered Clouds
4:55 AM 73.4 °F - 68.0 °F 83% 29.89 in 10.0 mi South 8.1 mph - N/A   Scattered Clouds
5:15 AM 73.4 °F - 68.0 °F 83% 29.90 in 10.0 mi South 9.2 mph - N/A   Clear
5:35 AM 73.4 °F - 68.0 °F 83% 29.90 in 10.0 mi South 9.2 mph - N/A   Clear
5:55 AM 73.4 °F - 68.0 °F 83% 29.90 in 10.0 mi South 9.2 mph - N/A   Clear
6:15 AM 73.4 °F - 68.0 °F 83% 29.90 in 10.0 mi South 10.4 mph - N/A   Clear
6:35 AM 73.4 °F - 68.0 °F 83% 29.91 in 10.0 mi South 11.5 mph - N/A   Clear
6:50 AM 73.4 °F - 69.8 °F 88% 29.91 in 10.0 mi South 10.4 mph - N/A   Scattered Clouds
7:15 AM 73.4 °F - 69.8 °F 88% 29.92 in 10.0 mi South 11.5 mph - N/A   Clear
7:35 AM 73.4 °F - 69.8 °F 88% 29.92 in 10.0 mi South 11.5 mph - N/A   Clear
7:50 AM 75.2 °F - 69.8 °F 83% 29.93 in 10.0 mi South 12.7 mph - N/A   Clear
8:15 AM 77.0 °F - 69.8 °F 78% 29.93 in 10.0 mi South 11.5 mph - N/A   Clear
8:35 AM 77.0 °F - 69.8 °F 78% 29.94 in 10.0 mi South 12.7 mph 17.3 mph N/A   Clear
8:55 AM 78.8 °F - 69.8 °F 74% 29.94 in 10.0 mi South 13.8 mph 19.6 mph N/A   Clear
9:15 AM - - - N/A% - - North - - N/A   Unknown
9:35 AM 80.6 °F 83.9 °F 69.8 °F 70% 29.94 in 10.0 mi South 15.0 mph 25.3 mph 0.03 in   Clear
9:55 AM 82.4 °F 86.3 °F 69.8 °F 66% 29.95 in 10.0 mi South 13.8 mph 23.0 mph 0.03 in   Clear
10:15 AM 82.4 °F 86.3 °F 69.8 °F 66% 29.95 in 10.0 mi South 15.0 mph 23.0 mph N/A   Clear
10:35 AM 84.2 °F 88.4 °F 69.8 °F 62% 29.95 in 10.0 mi SSE 19.6 mph 24.2 mph N/A   Clear
10:55 AM 84.2 °F 87.3 °F 68.0 °F 58% 29.95 in 10.0 mi South 17.3 mph 25.3 mph N/A   Clear
11:15 AM 86.0 °F 90.4 °F 69.8 °F 58% 29.96 in 10.0 mi South 20.7 mph 26.5 mph N/A   Clear
11:35 AM 87.8 °F 90.4 °F 66.2 °F 49% 29.96 in 10.0 mi South 18.4 mph 25.3 mph N/A   Clear
11:55 AM 87.8 °F 88.5 °F 62.6 °F 43% 29.96 in 10.0 mi SSW 20.7 mph 28.8 mph N/A   Clear
12:15 PM 87.8 °F 89.4 °F 64.4 °F 46% 29.96 in 10.0 mi South 19.6 mph 27.6 mph N/A   Clear
12:35 PM 89.6 °F 91.1 °F 64.4 °F 43% 29.94 in 10.0 mi South 16.1 mph 25.3 mph N/A   Clear
12:55 PM 89.6 °F 93.4 °F 68.0 °F 49% 29.95 in 10.0 mi South 18.4 mph 25.3 mph N/A   Clear
1:15 PM 89.6 °F 92.2 °F 66.2 °F 46% 29.94 in 10.0 mi South 15.0 mph 26.5 mph N/A   Clear
1:35 PM 91.4 °F 94.0 °F 66.2 °F 43% 29.94 in 10.0 mi SSE 18.4 mph 24.2 mph N/A   Clear
1:55 PM 91.4 °F 95.4 °F 68.0 °F 46% 29.94 in 10.0 mi South 15.0 mph 23.0 mph N/A   Clear
2:15 PM 91.4 °F 95.4 °F 68.0 °F 46% 29.93 in 10.0 mi SSE 17.3 mph 25.3 mph N/A   Clear
2:35 PM 91.4 °F 95.4 °F 68.0 °F 46% 29.93 in 10.0 mi South 17.3 mph 23.0 mph N/A   Clear
3:15 PM 91.4 °F 95.4 °F 68.0 °F 46% 29.92 in 10.0 mi SSE 17.3 mph 25.3 mph N/A   Clear
3:55 PM 91.4 °F 95.4 °F 68.0 °F 46% 29.90 in 10.0 mi South 18.4 mph 27.6 mph N/A   Clear
4:15 PM 91.4 °F 95.4 °F 68.0 °F 46% 29.89 in 10.0 mi South 13.8 mph 21.9 mph N/A   Clear
4:35 PM 93.2 °F 96.2 °F 66.2 °F 41% 29.89 in 10.0 mi SSE 20.7 mph - N/A   Clear
4:55 PM 93.2 °F 96.2 °F 66.2 °F 41% 29.89 in 10.0 mi SSE 16.1 mph 24.2 mph N/A   Clear
5:15 PM 93.2 °F 94.9 °F 64.4 °F 38% 29.88 in 10.0 mi South 19.6 mph 24.2 mph N/A   Clear
5:35 PM 93.2 °F 94.9 °F 64.4 °F 38% 29.88 in 10.0 mi South 18.4 mph 23.0 mph N/A   Clear
5:55 PM 93.2 °F 94.9 °F 64.4 °F 38% 29.88 in 10.0 mi SSE 16.1 mph 24.2 mph N/A   Clear
6:15 PM 91.4 °F 93.2 °F 64.4 °F 41% 29.87 in 10.0 mi SSE 15.0 mph - N/A   Clear
6:30 PM 91.4 °F 93.2 °F 64.4 °F 41% 29.87 in 10.0 mi SSE 18.4 mph 25.3 mph N/A   Clear
6:55 PM 91.4 °F 93.2 °F 64.4 °F 41% 29.87 in 10.0 mi SSE 17.3 mph 26.5 mph N/A   Clear
7:15 PM 89.6 °F 91.1 °F 64.4 °F 43% 29.87 in 10.0 mi SSE 18.4 mph 21.9 mph N/A   Clear
7:30 PM 89.6 °F 93.4 °F 68.0 °F 49% 29.87 in 10.0 mi SE 18.4 mph 23.0 mph N/A   Clear
7:55 PM 87.8 °F 91.4 °F 68.0 °F 52% 29.88 in 10.0 mi SSE 18.4 mph 21.9 mph N/A   Clear
8:15 PM 87.8 °F 91.4 °F 68.0 °F 52% 29.89 in 10.0 mi SSE 17.3 mph 20.7 mph N/A   Clear
8:35 PM 86.0 °F 89.4 °F 68.0 °F 55% 29.90 in 10.0 mi SSE 18.4 mph 23.0 mph N/A   Clear
8:55 PM 86.0 °F 88.2 °F 66.2 °F 51% 29.90 in 10.0 mi SSE 15.0 mph 20.7 mph N/A   Clear
9:15 PM 86.0 °F 87.3 °F 64.4 °F 48% 29.90 in 10.0 mi SSE 12.7 mph 21.9 mph N/A   Clear
9:35 PM 86.0 °F 87.3 °F 64.4 °F 48% 29.91 in 10.0 mi SSE 12.7 mph - N/A   Clear
9:55 PM 82.4 °F 84.6 °F 66.2 °F 58% 29.92 in 10.0 mi SSE 10.4 mph 17.3 mph N/A   Clear
10:15 PM 82.4 °F 84.6 °F 66.2 °F 58% 29.92 in 10.0 mi SSE 11.5 mph - N/A   Clear
10:35 PM 82.4 °F 85.4 °F 68.0 °F 62% 29.92 in 10.0 mi SSE 15.0 mph 19.6 mph N/A   Clear
10:55 PM 82.4 °F 85.4 °F 68.0 °F 62% 29.93 in 10.0 mi SSE 15.0 mph 20.7 mph N/A   Clear
11:15 PM 80.6 °F 83.2 °F 68.0 °F 65% 29.93 in 10.0 mi SSE 15.0 mph - N/A   Clear
11:35 PM 80.6 °F 83.2 °F 68.0 °F 65% 29.94 in 10.0 mi SSE 13.8 mph - N/A   Clear
11:55 PM 80.6 °F 83.2 °F 68.0 °F 65% 29.94 in 10.0 mi SSE 15.0 mph 20.7 mph N/A   Clear